Location: Palo Alto
(37.4420°N, 122.1420°W)
Time: 06:31:59
(UTC-08:00)

ISS - All Passes

Search period start: 05 March 2015 00:00
Search period end: 15 March 2015 01:00
Orbit: 397 x 408 km, 51.6° (Epoch: 04 March)

Date Brightness Start Highest point End Pass type
(mag) Time Alt. Az. Time Alt. Az. Time Alt. Az.
05 Mar - 07:28:44 10° SW 07:31:54 56° SE 07:35:05 10° ENE daylight
05 Mar - 09:06:15 10° WNW 09:08:35 18° NNW 09:10:53 10° NNE daylight
05 Mar - 13:58:11 10° NNW 14:01:08 31° NNE 14:04:05 10° E daylight
05 Mar - 15:34:50 10° WNW 15:37:29 23° SW 15:40:04 10° S daylight
06 Mar - 06:36:24 10° S 06:39:07 26° SE 06:41:54 10° ENE daylight
06 Mar - 08:12:39 10° W 08:15:31 28° NNW 08:18:22 10° NNE daylight
06 Mar - 13:05:39 10° NNW 13:08:04 19° NNE 13:10:32 10° ENE daylight
06 Mar - 14:41:33 10° WNW 14:44:41 48° SW 14:47:50 10° SSE daylight
07 Mar - 05:44:54 10° SSE 05:46:22 13° SE 05:47:57 10° E visible
07 Mar - 07:19:21 10° WSW 07:22:31 53° NW 07:25:41 10° NE daylight
07 Mar - 08:58:26 10° NW 08:59:34 11° NNW 09:00:39 10° N daylight
07 Mar - 12:13:16 10° N 12:14:54 13° NNE 12:16:35 10° NE daylight
07 Mar - 13:48:35 10° NW 13:51:49 76° NE 13:55:03 10° SE daylight
08 Mar - 07:26:22 10° SW 07:29:34 71° SE 07:32:48 10° NE daylight
08 Mar - 09:04:12 10° WNW 09:06:20 16° NNW 09:08:26 10° NNE daylight
08 Mar - 13:55:48 10° NW 13:58:50 37° NE 14:01:52 10° ESE daylight
08 Mar - 15:32:43 10° W 15:35:06 19° SW 15:37:25 10° S daylight
09 Mar - 06:33:48 10° SSW 06:36:42 32° SE 06:39:39 10° ENE visible
09 Mar - 08:10:26 10° W 08:13:10 25° NNW 08:15:54 10° NNE daylight
09 Mar - 13:03:09 10° NNW 13:05:44 22° NNE 13:08:21 10° E daylight
09 Mar - 14:39:13 10° WNW 14:42:15 39° SW 14:45:17 10° SSE daylight
10 Mar - 05:41:53 10° SSE 05:43:52 16° SE 05:45:56 10° E visible
10 Mar - 07:16:57 10° WSW 07:20:04 44° NW 07:23:11 10° NE daylight
10 Mar - 08:56:33 10° NNW 08:57:11 10° NNW 08:57:47 10° N daylight
10 Mar - 12:10:37 10° NNW 12:12:30 15° NNE 12:14:27 10° ENE daylight
10 Mar - 13:46:06 10° NW 13:49:20 87° SW 13:52:34 10° SE daylight
11 Mar - 06:23:48 10° SW 06:27:02 88° SSE 06:30:17 10° NE visible
11 Mar - 08:01:57 10° WNW 08:03:52 14° NNW 08:05:45 10° NNE daylight
11 Mar - 11:18:34 10° N 11:19:11 10° NNE 11:19:52 10° NNE daylight
11 Mar - 12:53:11 10° NW 12:56:18 44° NE 12:59:25 10° ESE daylight
11 Mar - 14:30:28 10° W 14:32:29 15° SW 14:34:26 10° SSW daylight
12 Mar - 05:31:02 10° SSW 05:34:04 39° SE 05:37:07 10° ENE visible
12 Mar - 07:07:59 10° W 07:10:36 22° NNW 07:13:12 10° NNE daylight
12 Mar - 12:00:25 10° NNW 12:03:09 25° NNE 12:05:54 10° E daylight
12 Mar - 13:36:40 10° WNW 13:39:35 31° SW 13:42:30 10° SSE daylight
13 Mar - 04:38:48 10° S 04:41:08 19° SE 04:43:32 10° E visible
13 Mar - 06:14:21 10° WSW 06:17:24 37° NW 06:20:26 10° NE visible
13 Mar - 11:07:46 10° NNW 11:09:52 16° NNE 11:12:00 10° ENE daylight
13 Mar - 12:43:23 10° NW 12:46:37 71° SW 12:49:49 10° SE daylight
14 Mar - 05:21:02 10° SW 05:24:15 76° NW 05:27:30 10° NE visible
14 Mar - 06:59:29 10° NW 07:01:10 13° NNW 07:02:48 10° N daylight
14 Mar - 10:15:24 10° N 10:16:29 11° NNE 10:17:38 10° NE daylight
14 Mar - 11:50:21 10° NW 11:53:31 53° NE 11:56:41 10° ESE daylight
14 Mar - 13:28:05 10° W 13:29:39 13° SW 13:31:05 10° SSW daylight
